DASH 1

Satellite information

Favourite Embed

Satellite Type and Status

PAYLOADIN ORBIT

Key statistics

Satellite DASH 1 at a glance.

Uptime

22706

Days in orbit

Revolutions

≈ 8.7

Per day

Orbit

MEO

Medium Earth Orbit

Inclination

87.3

Latest

Satellite identification and parameters

Extended collection of information and parameters for DASH 1.

Object identification

Identified? True

Debris? False

Object name: DASH 1

International designator: 1963-014D

Object number (NORAD): 589

Object ID (CCSDS): 589

Country: UNITED STATES OF AMERICA (US)

Current information (Y/N): Y

RCS size: LARGE

Orbital parameters

Period: 166.354 minutes

Inclination: 87.3296 deg

SMA: 10019.557 km

Apoapsis: 3731.09 km

Periapsis: 3551.754 km

RAAN: 223.2452 deg

Eccentricy: 0.0089493

Argument of periapsis: 331.7932 deg

Mean anomaly: 27.8094 deg

Mean motion: 8.65625438 rev/day

Mean motion (dot): 0.00000016 rev/day2

B* drag term: 0.0060437 1/REarth

Two-line elements (TLE)

Creation date: July 7, 2025, 6:34 p.m.

Reference frame: TEME

Reference center: EARTH

Epoch: July 7, 2025, 1:26 a.m. UTC

TLE line 0: 0 DASH 1

TLE line 1: 1 00589U 63014D 25188.06025163 .00000016 00000-0 60437-2 0 9992

TLE line 2: 2 00589 87.3296 223.2452 0089493 331.7932 27.8094 8.65625438963959

Live tracking on map

Real-time ground track for satellite DASH 1.

In-orbit conjunctions

There are no conjunctions computed for DASH 1, at the moment. Check back to stay up to date, as we update our databases every day.

Go to all conjunctions

Associated space launch

MIDAS Series 3 (Military Defense Alarm System) early warning satellite.

DASH 1 was lifted into orbit during the mission ‘Atlas Agena B | Midas 7’, on board a Atlas Agena B space rocket.

The launch took place on May 9, 1963, 8:06 p.m. from Space Launch Complex 3E.

For more information about the launch, click the button.

Launch to space Atlas Agena B | Midas 7
Atlas Agena B | Midas 7

Agency: N/A

Status: Launch Successful

Launch date: May 9, 1963, 8:06 p.m. UTC

Rocket: Atlas Agena B

Launch pad: Space Launch Complex 3E

Location: Vandenberg SFB, CA, USA

...

Latest news about this satellite

There are no fresh news available about this satellite. Check back as we update our databases every day.


Newsletter sign-up

Weekly statistics, charts and insights to help you stay on top of the space industry.